Current Temps

Weather Temperatures Right Now
Weather Temperatures - Feels Like

Interactive Temperatures Map | Weather by Zip Code

National Weather Service Data
ASUS41 Bulletin

Most recent data in the last 24 hours

948 
ASUS41 KAKQ 301810  WSI PPS:301811
RWRAKQ

REGIONAL WEATHER ROUNDUP
NATIONAL WEATHER SERVICE WAKEFIELD VA
200 PM EDT WED JUL 30 2014

Note: "fair" indicates few or no clouds below 12,000 feet with no
significant weather and/or obstructions to visibility. * = Denotes
station may not report precipitation (e.g., rain,snow,etc.),
thunder or fog.

VAZ042-051-052>054-056-301900-
NORTHERN VIRGINIA
  
CITY           SKY/WX    TMP DP  RH WIND       PRES   REMARKS
WASH NATIONAL  FAIR      79  52  38 S8        30.07F                  
DULLES         PTSUNNY   75  49  39 VRB7      30.07F                  
FORT BELVOIR   FAIR      78  50  37 VRB2      30.07F                  
QUANTICO       FAIR      76  54  46 S7        30.08F                  
FREDERICKSBRG* PTSUNNY   76  52  42 CALM      30.07F                  
STAFFORD*      FAIR      76  52  42 W6        30.12F                  
WARRENTON      FAIR      79  59  49 N5        30.07F                  
CULPEPER*      FAIR     N/A N/A N/A W3        30.08F                  
MANASSAS*      NOT AVBL                                               
LEESBURG*      FAIR      77  54  44 CALM      30.08S                  
WINCHESTER     CLOUDY    73  52  46 CALM      30.07F                  
$$

VAZ048-049-060>072-079>083-301900-
CENTRAL AND SOUTH CENTRAL VIRGINIA...AND NORTH CENTRAL NORTH CAROLINA
  
CITY           SKY/WX    TMP DP  RH WIND       PRES   REMARKS
RICHMOND       FAIR      80  50  34 W3        30.08F                  
CHESTERFIELD*  FAIR      77  50  38 S7        30.10F                  
HANOVER        FAIR      79  52  38 CALM      30.09F                  
TAPPAHANNOCK*  FAIR      80  49  33 SW8       30.08F                  
CHARLOTTSVILLE FAIR      76  53  44 SW9       30.08F                  
ORANGE*        FAIR      77  52  41 S3        30.09F                  
LOUISA*        PTSUNNY   75  55  50 CALM      30.07F                  
FARMVILLE*     PTSUNNY   79  52  38 S7        30.07F                  
SOUTH HILL*    FAIR      77  61  57 CALM      30.14F                  
ROANOKE RAPIDS NOT AVBL                                               
RALEIGH        PTSUNNY   79  63  57 NE6       30.08F                  
$$

VAZ088>098-301900-
SOUTHEAST VIRGINIA
  
CITY           SKY/WX    TMP DP  RH WIND       PRES   REMARKS
NORFOLK        CLOUDY    76  53  44 N7        30.08F                  
VIRGINIA BEACH PTSUNNY   77  54  44 N10       30.06F                  
NORFOLK NAVAL  PTSUNNY   77  54  44 N7        30.09F                  
WEST POINT*    FAIR      80  49  33 W3        30.09F                  
NEWPORT NEWS   FAIR      81  56  42 VRB6      30.07F                  
LANGLEY AFB    FAIR      78  56  46 NE9       30.06F                  
FORT EUSTIS    FAIR      78  56  46 VRB1      30.06F                  
WILLIAMSBURG*  FAIR      82  59  44 W8        30.08F                  
FRANKLIN*      FAIR      79  55  44 CALM      30.08F                  
WAKEFIELD      FAIR      78  58  49 VRB3      30.08F                  
$$

VAZ020-022-025-037-045-301900-
WESTERN AND SOUTHWEST VIRGINIA
  
CITY           SKY/WX    TMP DP  RH WIND       PRES   REMARKS
STAUNTON*      PTSUNNY   74  48  40 NE5       30.11F                  
HOT SPRINGS VA PTSUNNY   61  46  57 S3        30.19F                  
LYNCHBURG      FAIR      76  51  41 SW5       30.11F                  
DANVILLE       PTSUNNY   78  59  51 VRB3      30.09F                  
MARTINSVILLE   PTSUNNY   80  52  37 CALM      30.12S                  
ROANOKE        FAIR      74  52  46 SE5       30.12F                  
BLACKSBURG     FAIR      73  54  49 W3          N/A                   
DUBLIN*        FAIR      74  50  42 SW5       30.15S                  
MARION*        FAIR      73  49  43 SW3       30.17F                  
HILLSVILLE*    CLOUDY    71  49  45 NE3       30.15F                  
RICHLANDS*     MOCLDY    71  51  50 CALM      30.17S                  
WISE*          PTSUNNY   68  50  52 N6        30.18S                  
ABINGDON*      FAIR      73  54  50 CALM      30.15F                  
$$

MDZ021>025-VAZ099-100-301900-
SOUTHERN MARYLAND AND THE DELMARVA PENINSULA
  
CITY           SKY/WX    TMP DP  RH WIND       PRES   REMARKS
PATUXENT RIVER FAIR      76  52  43 SE5       30.06F                  
BAY BRIDGE APT   N/A     75  50  41 SW3       30.07S                  
LEONARDTOWN    FAIR      75  50  41 W7        30.09S                  
DOVER          NOT AVBL                                               
GEORGETOWN     FAIR      77  51  40 S9        30.06F                  
EASTON         MOSUNNY   77  54  44 NW7       30.11S                  
CAMBRIDGE      FAIR      77  52  41 NW9       30.06F                  
SALISBURY      FAIR      81  50  33 W10       30.05F                  
OCEAN CITY     FAIR      76  59  55 SE9       30.06F                  
WALLOPS ISLAND FAIR      80  51  36 VRB6      30.07F                  
ACCOMACK*        N/A     77  55  47 NW5       30.07F                  
$$

NCZ012>017-030>032-301900-
EASTERN NORTH CAROLINA
  
CITY           SKY/WX    TMP DP  RH WIND       PRES   REMARKS
ELIZABETH CITY FAIR      80  61  52 CALM      30.07F                  
AHOSKIE*       FAIR      77  59  53 CALM      30.08F                  
EDENTON*       PTSUNNY   79  64  59 S7        30.07F                  
CURRITUCK*     CLOUDY    79  55  43 NE3       30.08F                  
KILL DEVIL HLS FAIR      78  59  51 N7        30.07S                  
MANTEO         NOT AVBL                                               
CAPE HATTERAS  FAIR      82  62  50 N8G18     30.06S                  
GOLDSBORO      FAIR      81  66  60 VRB2      30.04F                  
WASHINGTON     FAIR      80  61  52 CALM      30.07F                  
GREENVILLE     FAIR      81  63  54 E5        30.08F                  
NEW BERN       FAIR      85  59  41 VRB6      30.07S                  
WILMINGTON     FAIR      84  65  52 E10G18    30.05S                  
$$

VAZ048-301900-
ELSEWHERE
  
CITY           SKY/WX    TMP DP  RH WIND       PRES   REMARKS
HARRISBURG PA  PTSUNNY   76  55  48 SE6       30.04F                  
BALTIMORE      FAIR      78  48  34 VRB5      30.05F                  
ANNAPOLIS      PTSUNNY   73  57  57 SE10      30.06F                  
ANDREWS AFB    FAIR      75  51  42 VRB3      30.06F                  
WILMINGTON DE  FAIR      78  55  44 W8        30.05F                  
PHILADELPHIA   FAIR      78  51  38 S9        30.03F                  
WILDWOOD NJ*   FAIR      75  52  43 W12       30.07S                  
ATLANTIC CITY  FAIR      79  52  38 NW7       30.03F                  
HENDERSON NC   PTSUNNY   75  62  63 E6        30.09F                  
GREENSBORO     PTSUNNY   79  61  53 VRB3      30.08F                  
ROCKY MOUNT    PTSUNNY   81  61  50 CALM      30.08F                  
FAYETTEVILLE   PTSUNNY   84  62  47 E6        30.04F                  
CHARLOTTE      FAIR      81  59  47 E6        30.08F                  
$$

VAZ100-301900-
MARINE
  
STATION/POSITION TIME  TEMP    WIND        PRES    WAVE   SWELL
                       AIR SEA DIR/SP/G            HT/PER HT/PER
                 (UTC) (F)     (DEG/KT/KT) (MB)    (FT/S) (FT/S)
44066 TX TWR #4  1800   72 76  330/  8/ 12 1016.7S   3/ 8   3/ 8
CAPE MAY NJ      1800   73 76  300/  4/  6 1017.4F
LEWES DE         1800   71 72   20/  6/  7 1017.5F
15NM E FENWICK I 1800   71 74              1018.1F   2/ 8
OCEAN-CITY-INLET 1800   73 71  140/  6/  9 1017.4F
WACHAPREAGUE VA  1800   78 78  260/  5/ 10 1018.2S
THOMAS POINT MD  1800   72 78  150/  8/  9 1018.5F
GOOSES REEF MD   1800   72     170/  2/  4 1019.0S
COVE POINT MD    1800   71      70/  3/  5 1018.2F
SOLOMONS ISLAND  1800      80                N/A
BISHOPS HEAD MD  1800   73 78  270/  6/  7 1017.9F
PINEY POINT MD   1800          350/  6/  7   N/A
POTOMAC MD       1800   73     340/  6/  8 1017.7F
CAMBRIDGE MD     1800   72 78  330/ 10/ 12 1017.8F
LEWISETTA VA     1800   74 77   60/  4/  7 1018.0F
RAPPAHANNOCK LGT 1800          350/  5/  6 1019.1F
STINGRAY PT      1800   74     110/  2/  4 1019.2F
YORK RVR RNG VA  1800   74     160/  4/  5 1018.0F
YORKTOWN VA      1800   77 79  350/  3/  4 1018.1F
JAMESTOWN VA     1800   73     340/  6/  8   N/A
DOMINION TERM VA 1800   74     190/  2/  3 1018.7F
KIPTOPEKE VA     1800      81  320/  5/  7   N/A
CHES BAY BRIDGE  1800   73 77  350/  6/  7 1017.9F
CAPE HENRY VA    1800   73     330/  7/  9 1017.4F
WILLOUBY STN VA  1800           70/  4/  5 1017.9F
S CRANEY ISL VA  1800          320/  4/  6 1018.6S
CAPE HENRY BUOY  1800      79                N/A     2/ 9
1ST LANDING BUOY 1800   74     350/  6/  8 1018.3S
CAPE CHARLES BUO 1800      78                N/A     2/ 9
OFFSHORE WE BUOY 1800      78                N/A     2/ 8
64NM E OF VA BCH 1800   74 78  350/ 10/ 14 1017.8F   2/ 8   2/ 8
DUCK PIER NC     1800   74 76   10/  9/ 10 1017.7S
44056 DUCK FRF   1800                        N/A     2/ 8
OREGON INLET NC  1800   77 77   30/  8/ 10 1018.1F
HATTERAS NC      1800   78 79   30/  9/ 15 1018.3S
DIAMOND SHLS NC  1800          VRB 14/ 17  1017.3R   4/ 7   2/ 7
CAPE LOOKOUT NC  1700   78      50/ 14/ 17 1017.7S
$$



ASUS41 Bulletin

Most recent data in the last 24 hours

950 
ASUS41 KLWX 301810  WSI PPS:301811
RWRLWX

REGIONAL WEATHER ROUNDUP
NATIONAL WEATHER SERVICE BALTIMORE MD/WASHINGTON DC
200 PM EDT WED JUL 30 2014

Note: "FAIR" indicates few or no clouds below 12,000 feet
with no significant weather and/or obstructions to visibility.
 TC=TEMPERATURE CELSIUS

 * =Non NWS site. Station does not report precipitation (e.g. rain,
    snow, etc.), thunder, or fog.

DCZ001-MDZ009-015-VAZ040>042-051-053>054-301900-
WASHINGTON METRO
  /KDAA//-FT BELVOIR
  
CITY           SKY/WX    TMP DP  RH WIND       PRES   REMARKS
WASHINGTON NAT FAIR      79  52  38 S8        30.07F                  
DULLES         PTSUNNY   75  49  39 VRB7      30.07F                  
ANDREWS AFB    FAIR      75  51  42 VRB3      30.06F                  
QUANTICO       FAIR      76  54  46 S7        30.08F                  
COLLEGE PARK*  FAIR      79  46  31 SW6       30.06F                  
LEESBURG*      FAIR      77  54  44 CALM      30.08S                  
GAITHERSBURG*  FAIR      75  52  43 SE3       30.10F                  

$$

MDZ006>007-011-014-301900-
BALTIMORE METRO
  
CITY           SKY/WX    TMP DP  RH WIND       PRES   REMARKS
BWI AIRPORT    FAIR      78  48  34 VRB5      30.05F                  
MD SCIENCE CTR   N/A     76  48  37 MISG      30.06F                  
MARTIN STATE   MOSUNNY   75  59  57 E9        30.07F                  
ANNAPOLIS      PTSUNNY   73  57  57 SE10      30.06F                  
FORT MEADE*    FAIR      75  48  38 CALM      30.08F                  

$$

MDZ012-015-019>023-301900-
MARYLAND EASTERN SHORE
  
CITY           SKY/WX    TMP DP  RH WIND       PRES   REMARKS
OCEAN CITY     FAIR      76  59  55 SE9       30.06F                  
SALISBURY      FAIR      81  50  33 W10       30.05F                  
BAY BRIDGE AP*   N/A     75  50  41 SW3       30.07S                  
CAMBRIDGE*     FAIR      77  52  41 NW9       30.06F                  
EASTON*        MOSUNNY   77  54  44 NW7       30.11S                  

$$

MDZ017>025-301900-
SOUTHERN MARYLAND
  
CITY           SKY/WX    TMP DP  RH WIND       PRES   REMARKS
PATUXENT RIVER FAIR      76  52  43 SE5       30.06F                  
ST INIGOES     FAIR      77  48  35 W6        30.07F                  
LEONARDTOWN*   FAIR      75  50  41 W7        30.09S                  

$$

MDZ003>005-301900-
NORTH CENTRAL MARYLAND
  
CITY           SKY/WX    TMP DP  RH WIND       PRES   REMARKS
FREDERICK*     MOSUNNY   79  55  44 CALM      30.09F                  
HAGERSTOWN APT FAIR      73  52  47 MISG      30.06F                  
WESTMINSTER*   FAIR      73  54  49 CALM      30.08S                  

$$

MDZ501>502-301900-
WESTERN MARYLAND
  
CITY           SKY/WX    TMP DP  RH WIND       PRES   REMARKS
OAKLAND*       FAIR      63  52  67 W7        30.13S                  
CUMBERLAND*    FAIR      77  55  47 CALM      30.09F                  

$$

VAZ025>031-301900-
SHENANDOAH VALLEY
  
CITY           SKY/WX    TMP DP  RH WIND       PRES   REMARKS
WINCHESTER*    CLOUDY    73  52  46 CALM      30.07F                  
STAUNTON*      PTSUNNY   74  48  40 NE5       30.11F                  

$$

WVZ021-048>050-054>055-301900-
EASTERN WEST VIRGINIA PANHANDLE
  
CITY           SKY/WX    TMP DP  RH WIND       PRES   REMARKS
MARTINSBURG    FAIR      77  49  37 W6        30.07F                  
PETERSBURG*    PTSUNNY   73  49  42 CALM      30.08F                  

$$

VAZ036>039-050-301900-
CENTRAL FOOTHILLS
  
CITY           SKY/WX    TMP DP  RH WIND       PRES   REMARKS
CHARLOTTESVILL FAIR      76  53  44 SW9       30.08F                  
ORANGE*        FAIR      77  52  41 S3        30.09F                  

$$

VAZ055>057-301900-
NORTH AND CENTRAL PIEDMONT
  
CITY           SKY/WX    TMP DP  RH WIND       PRES   REMARKS
FREDERICKSBRG* PTSUNNY   76  52  42 CALM      30.07F                  
STAFFORD*      FAIR      76  52  42 W6        30.12F                  

$$

NCZ024-NYZ072-PAZ021-071-VAZ022-071-301900-
OTHER REGIONAL OBSERVATIONS
  
CITY           SKY/WX    TMP DP  RH WIND       PRES   REMARKS
NEW YORK CITY  FAIR      79  45  29 NW5       30.03F                  
PHILADELPHIA   FAIR      78  51  38 S9        30.03F                  
PITTSBURGH     PTSUNNY   71  56  58 SW10      30.03F                  
ROANOKE        FAIR      74  52  46 SE5       30.12F                  
RICHMOND       FAIR      80  50  34 W3        30.08F                  
RALEIGH        PTSUNNY   79  63  57 NE6       30.08F                  

$$

ANZ530>537-301900-
MARINE OBSERVATIONS
  
STATION/POSITION TIME  TEMP    WIND        PRES
                       AIR SEA DIR/SP/G
                 (UTC) (F)     (DEG/KT/KT) (MB)
THOMAS PT LIGHT  1800   72 78  150/  8/  9 1018.5F
BALT KEY BRIDGE  1800   74     120/  5/  8 1017.5F
COVE POINT       1800   71      70/  3/  5 1018.2F
LEWISETTA        1800   74 77   60/  4/  7 1018.0F
SOLOMONS ISLAND  1800      80                N/A
PINEY POINT      1800          350/  6/  7   N/A

$$



Weather Maps

LOCAL DOPPLER RADAR

LOCAL FORECAST

METRO ZONE WEATHER

REGIONAL WEATHER

EASTERN WEATHER

NATIONAL WEATHER

SEVERE WEATHER

Weather Cams
Topper Shutt Weather Blog
Howard Bernstein Weather Blog
Erica Grow Weather Blog
Weather Photos
Get automated phone alerts when severe weather is in your area. Sign up for the WUSA9 First Alert Weather Call.